ARG1180 SAEZ-NZAA

Flight info

Callsign ARG1180
Flight time N/A
Altitude 30000
Route GBE6 GBE UT694 IREMO UP664 VIE UT109 IRAVU/N0484F320 UT109 GAL UP664 NAS/N0486F310 DCT 56S075W 59S079W 62S085W/N0476F330 64S090W/N0482F340 66S100W 68S110W 69S120W 69S131W 69S134W 65S160W/N0480F360 61S170W 56S179E/N0471F380 51S175E/N0470F390 DCT SW Y477 CH Y175 OPABI Q277 DAVEE DAVEE6A
Aircraft A343/H-SDE2E3FGHIJ4J5M1RWXY/LB1D1

Departure

Time 2026-05-07 21:59
Airport Ezeiza International Airport - Ministro Pistarini (SAEZ)

Arrival

Time N/A
Airport Auckland International Airport (NZAA)
Time Latitude Longitude Altitude Speed Heading
2026-05-07 21:33 -34.81649 -58.54359 79 ft 0 kts 11°
2026-05-07 21:44 -34.81654 -58.54360 69 ft 3 kts 11°
2026-05-07 21:44 -34.81680 -58.54367 81 ft 4 kts 13°
2026-05-07 21:44 -34.81706 -58.54375 84 ft 4 kts 19°
2026-05-07 21:45 -34.81723 -58.54383 84 ft 4 kts 28°
2026-05-07 21:45 -34.81745 -58.54401 84 ft 4 kts 49°
2026-05-07 21:45 -34.81757 -58.54428 85 ft 4 kts 86°
2026-05-07 21:45 -34.81757 -58.54442 85 ft 1 kts 96°
2026-05-07 21:46 -34.81757 -58.54443 85 ft 0 kts 96°
2026-05-07 21:49 -34.81757 -58.54442 85 ft 1 kts 96°
2026-05-07 21:49 -34.81761 -58.54405 85 ft 4 kts 99°
2026-05-07 21:49 -34.81761 -58.54402 85 ft 0 kts 99°
2026-05-07 21:50 -34.81762 -58.54400 85 ft 3 kts 104°
2026-05-07 21:50 -34.81768 -58.54387 85 ft 4 kts 117°
2026-05-07 21:50 -34.81774 -58.54332 80 ft 7 kts 95°
2026-05-07 21:50 -34.81778 -58.54278 83 ft 9 kts 95°
2026-05-07 21:51 -34.81790 -58.54150 82 ft 22 kts 98°
2026-05-07 21:51 -34.81750 -58.53950 84 ft 26 kts 59°
2026-05-07 21:51 -34.81650 -58.53783 67 ft 23 kts 41°
2026-05-07 21:51 -34.81531 -58.53666 69 ft 21 kts 32°
2026-05-07 21:52 -34.81412 -58.53601 83 ft 17 kts 26°
2026-05-07 21:52 -34.81401 -58.53499 82 ft 12 kts 117°
2026-05-07 21:52 -34.81436 -58.53416 83 ft 10 kts 117°
2026-05-07 21:52 -34.81467 -58.53346 84 ft 9 kts 119°
2026-05-07 21:53 -34.81507 -58.53262 87 ft 15 kts 120°
2026-05-07 21:53 -34.81569 -58.53152 89 ft 20 kts 138°
2026-05-07 21:53 -34.81733 -58.53082 86 ft 28 kts 164°
2026-05-07 21:53 -34.81911 -58.53022 89 ft 25 kts 165°
2026-05-07 21:54 -34.82044 -58.52930 87 ft 20 kts 107°
2026-05-07 21:54 -34.82078 -58.52766 84 ft 21 kts 104°
2026-05-07 21:54 -34.82113 -58.52584 83 ft 23 kts 103°
2026-05-07 21:54 -34.82150 -58.52390 83 ft 24 kts 103°
2026-05-07 21:55 -34.82189 -58.52184 80 ft 25 kts 105°
2026-05-07 21:55 -34.82233 -58.51981 80 ft 24 kts 105°
2026-05-07 21:55 -34.82274 -58.51810 84 ft 8 kts 126°
2026-05-07 21:55 -34.82276 -58.51808 84 ft 1 kts 133°
2026-05-07 21:56 -34.82302 -58.51795 83 ft 8 kts 162°
2026-05-07 21:56 -34.82338 -58.51793 83 ft 0 kts 188°
2026-05-07 21:57 -34.82371 -58.51799 85 ft 8 kts 189°
2026-05-07 21:57 -34.82416 -58.51810 83 ft 5 kts 192°
2026-05-07 21:57 -34.82479 -58.51832 91 ft 15 kts 200°
2026-05-07 21:57 -34.82520 -58.51902 88 ft 0 kts 276°
2026-05-07 21:58 -34.82508 -58.51985 85 ft 29 kts 282°
2026-05-07 21:58 -34.82426 -58.52443 87 ft 81 kts 282°
2026-05-07 21:58 -34.82273 -58.53298 88 ft 125 kts 282°
2026-05-07 21:59 -34.82059 -58.54491 90 ft 162 kts 281°
2026-05-07 21:59 -34.81796 -58.55857 578 ft 160 kts 283°
2026-05-07 21:59 -34.81541 -58.57127 1285 ft 151 kts 277°
2026-05-07 21:59 -34.81331 -58.58444 1486 ft 165 kts 275°
2026-05-07 22:00 -34.81185 -58.59862 1736 ft 173 kts 266°
2026-05-07 22:00 -34.81417 -58.61322 1953 ft 183 kts 243°
2026-05-07 22:00 -34.82248 -58.62598 2108 ft 203 kts 225°
2026-05-07 22:00 -34.83373 -58.63737 2376 ft 218 kts 217°
2026-05-07 22:01 -34.84776 -58.64571 2708 ft 235 kts 199°
2026-05-07 22:01 -34.86480 -58.64699 3032 ft 256 kts 180°
2026-05-07 22:01 -34.88280 -58.64398 3499 ft 265 kts 176°
2026-05-07 22:01 -34.90113 -58.64024 4069 ft 269 kts 175°
2026-05-07 22:02 -34.91969 -58.63638 4652 ft 272 kts 175°
2026-05-07 22:02 -34.93864 -58.63248 5113 ft 280 kts 175°
2026-05-07 22:02 -34.95788 -58.62853 5550 ft 288 kts 175°
2026-05-07 22:02 -34.97792 -58.62448 5995 ft 296 kts 175°
2026-05-07 22:03 -34.99851 -58.62028 6334 ft 307 kts 175°
2026-05-07 22:03 -35.01986 -58.61590 6728 ft 314 kts 175°
2026-05-07 22:03 -35.04153 -58.61144 7168 ft 319 kts 175°
2026-05-07 22:03 -35.06368 -58.60689 7609 ft 325 kts 175°
2026-05-07 22:04 -35.07855 -58.60383 7914 ft 328 kts 175°